Saint Bonnet de Bellac- Haute Vienne - France
Donnes mto: jeudi, 27/09/2012
Date Horaire Temp. E. Hum. E. P.atmo. Pluie Vent Direction Direction Ensoleilleme Solaire P. de rose Temp au vent Rafales
27/09/2012 00:00 12,3 C 92 % 1005,7 hPa 0,0 mm 4,3 km/h (1 Bft) SO 225 0 min 0 W/m 11,0 C 12,3 C 6,8 km/h (2 Bft)
27/09/2012 00:10 12,3 C 92 % 1005,9 hPa 0,0 mm 7,2 km/h (2 Bft) O-SO 247 0 min 0 W/m 11,0 C 12,3 C 11,2 km/h (2 Bft)
27/09/2012 00:20 12,4 C 92 % 1006,1 hPa 0,0 mm 4,3 km/h (1 Bft) SO 225 0 min 0 W/m 11,1 C 12,4 C 7,2 km/h (2 Bft)
27/09/2012 00:30 12,5 C 92 % 1006,2 hPa 0,0 mm 5,8 km/h (2 Bft) SO 225 0 min 0 W/m 11,2 C 12,5 C 7,9 km/h (2 Bft)
27/09/2012 00:40 12,5 C 93 % 1006,3 hPa 0,0 mm 6,1 km/h (2 Bft) S-SO 202 0 min 0 W/m 11,4 C 12,5 C 10,8 km/h (2 Bft)
27/09/2012 00:50 12,5 C 92 % 1006,3 hPa 0,1 mm 8,6 km/h (2 Bft) S-SO 202 0 min 0 W/m 11,2 C 12,5 C 13,0 km/h (3 Bft)
27/09/2012 01:00 12,5 C 92 % 1006,4 hPa 0,0 mm 5,8 km/h (2 Bft) S-SO 202 0 min 0 W/m 11,2 C 12,5 C 10,8 km/h (2 Bft)
27/09/2012 01:10 12,5 C 92 % 1006,4 hPa 0,0 mm 4,3 km/h (1 Bft) S-SO 202 0 min 0 W/m 11,2 C 12,5 C 8,3 km/h (2 Bft)
27/09/2012 01:20 12,4 C 92 % 1006,5 hPa 0,0 mm 3,6 km/h (1 Bft) SO 225 0 min 0 W/m 11,1 C 12,4 C 7,6 km/h (2 Bft)
27/09/2012 01:30 12,5 C 92 % 1006,6 hPa 0,0 mm 4,7 km/h (1 Bft) SO 225 0 min 0 W/m 11,2 C 12,5 C 7,2 km/h (2 Bft)
27/09/2012 01:40 12,5 C 92 % 1006,7 hPa 0,0 mm 8,3 km/h (2 Bft) S-SO 202 0 min 0 W/m 11,2 C 12,5 C 12,2 km/h (2 Bft)
27/09/2012 01:50 12,5 C 92 % 1006,7 hPa 0,0 mm 7,2 km/h (2 Bft) S 180 0 min 0 W/m 11,2 C 12,5 C 8,3 km/h (2 Bft)
27/09/2012 02:00 12,6 C 92 % 1006,7 hPa 0,0 mm 7,6 km/h (2 Bft) SO 225 0 min 0 W/m 11,3 C 12,6 C 12,6 km/h (3 Bft)
27/09/2012 02:10 12,6 C 92 % 1006,9 hPa 0,1 mm 7,6 km/h (2 Bft) SO 225 0 min 0 W/m 11,3 C 12,6 C 13,7 km/h (3 Bft)
27/09/2012 02:20 12,6 C 92 % 1006,9 hPa 0,0 mm 10,4 km/h (2 Bft) O-SO 247 0 min 0 W/m 11,3 C 12,6 C 10,4 km/h (2 Bft)
27/09/2012 02:30 12,5 C 92 % 1007,0 hPa 0,0 mm 10,1 km/h (2 Bft) S-SO 202 0 min 0 W/m 11,2 C 12,5 C 14,0 km/h (3 Bft)
27/09/2012 02:40 12,4 C 92 % 1007,0 hPa 0,0 mm 7,6 km/h (2 Bft) SO 225 0 min 0 W/m 11,1 C 12,4 C 11,5 km/h (2 Bft)
27/09/2012 02:50 12,4 C 92 % 1007,2 hPa 0,0 mm 3,6 km/h (1 Bft) O-SO 247 0 min 0 W/m 11,1 C 12,4 C 3,6 km/h (1 Bft)
27/09/2012 03:02 12,2 C 92 % 1007,1 hPa 0,0 mm 6,5 km/h (2 Bft) SO 225 0 min 0 W/m 10,9 C 12,2 C 10,1 km/h (2 Bft)
27/09/2012 03:10 11,9 C 92 % 1007,0 hPa 0,0 mm 5,4 km/h (2 Bft) SO 225 0 min 0 W/m 10,6 C 11,9 C 6,1 km/h (2 Bft)
27/09/2012 03:20 11,9 C 92 % 1007,1 hPa 0,0 mm 7,2 km/h (2 Bft) SO 225 0 min 0 W/m 10,6 C 11,9 C 13,7 km/h (3 Bft)
27/09/2012 03:30 11,8 C 92 % 1007,2 hPa 0,0 mm 9,4 km/h (2 Bft) S 180 0 min 0 W/m 10,5 C 11,8 C 17,6 km/h (3 Bft)
27/09/2012 03:40 11,8 C 92 % 1007,2 hPa 0,0 mm 5,0 km/h (1 Bft) SO 225 0 min 0 W/m 10,5 C 11,8 C 5,0 km/h (1 Bft)
27/09/2012 03:50 11,7 C 93 % 1007,2 hPa 0,0 mm 7,2 km/h (2 Bft) SO 225 0 min 0 W/m 10,6 C 11,7 C 10,4 km/h (2 Bft)
27/09/2012 04:00 11,8 C 93 % 1007,2 hPa 0,0 mm 7,9 km/h (2 Bft) S-SO 202 0 min 0 W/m 10,7 C 11,8 C 12,2 km/h (2 Bft)
27/09/2012 04:10 11,8 C 93 % 1007,2 hPa 0,0 mm 9,7 km/h (2 Bft) S 180 0 min 0 W/m 10,7 C 11,8 C 13,7 km/h (3 Bft)
27/09/2012 04:20 11,9 C 93 % 1007,2 hPa 0,0 mm 6,5 km/h (2 Bft) SO 225 0 min 0 W/m 10,8 C 11,9 C 9,4 km/h (2 Bft)
27/09/2012 04:30 11,9 C 93 % 1007,2 hPa 0,0 mm 5,8 km/h (2 Bft) S-SO 202 0 min 0 W/m 10,8 C 11,9 C 5,8 km/h (2 Bft)
27/09/2012 04:40 11,9 C 93 % 1007,2 hPa 0,0 mm 9,4 km/h (2 Bft) SO 225 0 min 0 W/m 10,8 C 11,9 C 14,4 km/h (3 Bft)
27/09/2012 04:50 12,0 C 93 % 1007,3 hPa 0,0 mm 7,6 km/h (2 Bft) S-SO 202 0 min 0 W/m 10,9 C 12,0 C 13,0 km/h (3 Bft)
27/09/2012 05:00 12,1 C 93 % 1007,3 hPa 0,0 mm 7,9 km/h (2 Bft) SO 225 0 min 0 W/m 11,0 C 12,1 C 10,4 km/h (2 Bft)
27/09/2012 05:10 12,1 C 93 % 1007,4 hPa 0,0 mm 4,0 km/h (1 Bft) SO 225 0 min 0 W/m 11,0 C 12,1 C 4,0 km/h (1 Bft)
27/09/2012 05:20 12,1 C 92 % 1007,6 hPa 0,0 mm 9,4 km/h (2 Bft) SO 225 0 min 0 W/m 10,8 C 12,1 C 9,4 km/h (2 Bft)
27/09/2012 05:30 12,1 C 92 % 1007,8 hPa 0,0 mm 7,6 km/h (2 Bft) SO 225 0 min 0 W/m 10,8 C 12,1 C 11,9 km/h (2 Bft)
27/09/2012 05:40 12,1 C 92 % 1007,9 hPa 0,0 mm 8,6 km/h (2 Bft) O-SO 247 0 min 0 W/m 10,8 C 12,1 C 9,7 km/h (2 Bft)
27/09/2012 05:50 12,1 C 92 % 1008,0 hPa 0,0 mm 7,6 km/h (2 Bft) O-SO 247 0 min 0 W/m 10,8 C 12,1 C 10,1 km/h (2 Bft)
27/09/2012 06:00 12,1 C 92 % 1007,9 hPa 0,0 mm 8,6 km/h (2 Bft) S-SO 202 0 min 0 W/m 10,8 C 12,1 C 15,1 km/h (3 Bft)
27/09/2012 06:10 12,0 C 92 % 1007,9 hPa 0,0 mm 10,8 km/h (2 Bft) O-SO 247 0 min 0 W/m 10,7 C 12,0 C 11,9 km/h (2 Bft)
27/09/2012 06:20 11,9 C 92 % 1007,8 hPa 0,0 mm 8,6 km/h (2 Bft) SO 225 0 min 0 W/m 10,6 C 11,9 C 13,3 km/h (3 Bft)
27/09/2012 06:30 11,8 C 92 % 1008,1 hPa 0,0 mm 7,6 km/h (2 Bft) SO 225 0 min 0 W/m 10,5 C 11,8 C 8,6 km/h (2 Bft)
27/09/2012 06:40 11,8 C 92 % 1008,3 hPa 0,0 mm 8,3 km/h (2 Bft) SO 225 0 min 0 W/m 10,5 C 11,8 C 10,8 km/h (2 Bft)
27/09/2012 06:50 11,9 C 92 % 1008,4 hPa 0,1 mm 11,5 km/h (2 Bft) S-SO 202 0 min 0 W/m 10,6 C 11,9 C 13,7 km/h (3 Bft)
27/09/2012 07:00 12,0 C 92 % 1008,4 hPa 0,1 mm 6,5 km/h (2 Bft) S-SO 202 0 min 0 W/m 10,7 C 12,0 C 11,2 km/h (2 Bft)
27/09/2012 07:10 12,0 C 93 % 1008,7 hPa 0,0 mm 9,0 km/h (2 Bft) S 180 0 min 0 W/m 10,9 C 12,0 C 10,8 km/h (2 Bft)
27/09/2012 07:20 12,0 C 93 % 1008,8 hPa 0,0 mm 12,2 km/h (2 Bft) S-SO 202 0 min 0 W/m 10,9 C 12,0 C 15,1 km/h (3 Bft)
27/09/2012 07:30 12,1 C 93 % 1008,9 hPa 0,0 mm 5,4 km/h (2 Bft) O 270 0 min 0 W/m 11,0 C 12,1 C 5,4 km/h (2 Bft)
27/09/2012 07:40 12,2 C 93 % 1009,0 hPa 0,0 mm 6,1 km/h (2 Bft) O 270 0 min 0 W/m 11,1 C 12,2 C 6,8 km/h (2 Bft)
27/09/2012 07:50 12,1 C 93 % 1009,2 hPa 0,0 mm 6,8 km/h (2 Bft) S-SO 202 0 min 0 W/m 11,0 C 12,1 C 10,1 km/h (2 Bft)
27/09/2012 08:00 12,2 C 93 % 1009,2 hPa 0,0 mm 7,6 km/h (2 Bft) SO 225 0 min 0 W/m 11,1 C 12,2 C 9,7 km/h (2 Bft)
27/09/2012 08:10 12,1 C 93 % 1009,2 hPa 0,0 mm 8,6 km/h (2 Bft) S-SO 202 0 min 0 W/m 11,0 C 12,1 C 15,5 km/h (3 Bft)
27/09/2012 08:20 12,1 C 93 % 1009,4 hPa 0,0 mm 5,4 km/h (2 Bft) SO 225 0 min 0 W/m 11,0 C 12,1 C 7,6 km/h (2 Bft)
27/09/2012 08:30 12,0 C 93 % 1009,6 hPa 0,0 mm 14,0 km/h (3 Bft) S-SO 202 0 min 0 W/m 10,9 C 12,0 C 14,0 km/h (3 Bft)
27/09/2012 08:40 12,1 C 93 % 1009,8 hPa 0,0 mm 9,4 km/h (2 Bft) O-SO 247 0 min 0 W/m 11,0 C 12,1 C 9,4 km/h (2 Bft)
27/09/2012 08:50 12,2 C 93 % 1009,8 hPa 0,0 mm 9,4 km/h (2 Bft) SO 225 0 min 0 W/m 11,1 C 12,2 C 13,0 km/h (3 Bft)
27/09/2012 09:00 12,4 C 93 % 1009,9 hPa 0,0 mm 7,9 km/h (2 Bft) S-SO 202 0 min 0 W/m 11,3 C 12,4 C 10,8 km/h (2 Bft)
27/09/2012 09:10 12,8 C 93 % 1010,1 hPa 0,0 mm 10,1 km/h (2 Bft) S-SO 202 0 min 0 W/m 11,7 C 12,8 C 17,6 km/h (3 Bft)
27/09/2012 09:20 12,8 C 92 % 1010,3 hPa 0,2 mm 8,3 km/h (2 Bft) SO 225 0 min 0 W/m 11,5 C 12,8 C 13,0 km/h (3 Bft)
27/09/2012 09:30 12,8 C 92 % 1010,3 hPa 0,1 mm 11,5 km/h (2 Bft) S-SO 202 0 min 0 W/m 11,5 C 12,8 C 13,0 km/h (3 Bft)
27/09/2012 09:40 12,6 C 92 % 1010,6 hPa 0,1 mm 5,4 km/h (2 Bft) O-SO 247 0 min 0 W/m 11,3 C 12,6 C 9,0 km/h (2 Bft)
27/09/2012 09:50 12,7 C 92 % 1010,7 hPa 0,0 mm 4,7 km/h (1 Bft) SO 225 0 min 0 W/m 11,4 C 12,7 C 8,3 km/h (2 Bft)
27/09/2012 10:00 12,9 C 93 % 1010,9 hPa 0,0 mm 8,6 km/h (2 Bft) O-SO 247 0 min 0 W/m 11,8 C 12,9 C 16,6 km/h (3 Bft)
27/09/2012 10:10 13,2 C 92 % 1011,1 hPa 0,0 mm 4,7 km/h (1 Bft) SO 225 0 min 0 W/m 11,9 C 13,2 C 8,6 km/h (2 Bft)
27/09/2012 10:20 13,3 C 92 % 1011,3 hPa 0,0 mm 10,4 km/h (2 Bft) O-SO 247 0 min 0 W/m 12,0 C 13,3 C 15,5 km/h (3 Bft)
27/09/2012 10:30 13,5 C 91 % 1011,4 hPa 0,0 mm 4,0 km/h (1 Bft) S-SO 202 0 min 0 W/m 12,1 C 13,5 C 6,5 km/h (2 Bft)
27/09/2012 10:40 13,4 C 91 % 1011,5 hPa 0,0 mm 7,9 km/h (2 Bft) S-SO 202 0 min 0 W/m 12,0 C 13,4 C 11,2 km/h (2 Bft)
27/09/2012 10:50 13,4 C 91 % 1011,6 hPa 0,0 mm 5,0 km/h (1 Bft) SO 225 0 min 0 W/m 12,0 C 13,4 C 9,7 km/h (2 Bft)
27/09/2012 11:00 13,4 C 90 % 1011,8 hPa 0,0 mm 5,0 km/h (1 Bft) SO 225 0 min 0 W/m 11,8 C 13,4 C 9,7 km/h (2 Bft)
27/09/2012 11:10 13,4 C 91 % 1011,8 hPa 0,0 mm 7,9 km/h (2 Bft) S-SO 202 0 min 0 W/m 12,0 C 13,4 C 10,8 km/h (2 Bft)
27/09/2012 11:20 14,2 C 90 % 1012,0 hPa 0,0 mm 9,0 km/h (2 Bft) SO 225 0 min 0 W/m 12,6 C 14,2 C 11,2 km/h (2 Bft)
27/09/2012 11:30 15,3 C 89 % 1012,1 hPa 0,0 mm 2,2 km/h (1 Bft) S 180 0 min 0 W/m 13,5 C 15,3 C 6,1 km/h (2 Bft)
27/09/2012 11:40 15,6 C 86 % 1012,2 hPa 0,0 mm 7,6 km/h (2 Bft) SO 225 0 min 0 W/m 13,3 C 15,6 C 12,2 km/h (2 Bft)
27/09/2012 11:50 15,9 C 84 % 1012,2 hPa 0,0 mm 11,5 km/h (2 Bft) SO 225 0 min 0 W/m 13,2 C 15,9 C 20,2 km/h (4 Bft)
27/09/2012 12:00 15,6 C 84 % 1012,3 hPa 0,0 mm 4,0 km/h (1 Bft) SO 225 0 min 0 W/m 12,9 C 15,6 C 4,7 km/h (1 Bft)
27/09/2012 12:10 15,7 C 83 % 1012,3 hPa 0,0 mm 8,6 km/h (2 Bft) SO 225 0 min 0 W/m 12,8 C 15,7 C 15,8 km/h (3 Bft)
27/09/2012 12:20 16,2 C 82 % 1012,4 hPa 0,0 mm 10,4 km/h (2 Bft) SO 225 0 min 0 W/m 13,1 C 16,2 C 15,8 km/h (3 Bft)
27/09/2012 12:30 17,0 C 80 % 1012,5 hPa 0,0 mm 11,2 km/h (2 Bft) SO 225 0 min 0 W/m 13,5 C 17,0 C 17,3 km/h (3 Bft)
27/09/2012 12:40 17,2 C 78 % 1012,7 hPa 0,0 mm 7,6 km/h (2 Bft) O 270 0 min 0 W/m 13,3 C 17,2 C 13,7 km/h (3 Bft)
27/09/2012 12:50 17,3 C 77 % 1012,8 hPa 0,0 mm 6,1 km/h (2 Bft) SO 225 0 min 0 W/m 13,2 C 17,3 C 6,8 km/h (2 Bft)
27/09/2012 13:00 17,2 C 74 % 1012,9 hPa 0,0 mm 8,3 km/h (2 Bft) SO 225 0 min 0 W/m 12,5 C 17,2 C 14,0 km/h (3 Bft)
27/09/2012 13:10 17,2 C 74 % 1013,1 hPa 0,0 mm 9,0 km/h (2 Bft) O-SO 247 0 min 0 W/m 12,5 C 17,2 C 10,8 km/h (2 Bft)
27/09/2012 13:20 17,5 C 73 % 1013,2 hPa 0,0 mm 3,2 km/h (1 Bft) O 270 0 min 0 W/m 12,6 C 17,5 C 19,1 km/h (3 Bft)
27/09/2012 13:30 17,4 C 72 % 1013,3 hPa 0,0 mm 6,1 km/h (2 Bft) O-SO 247 0 min 0 W/m 12,3 C 17,4 C 10,4 km/h (2 Bft)
27/09/2012 13:40 17,7 C 70 % 1013,5 hPa 0,0 mm 9,0 km/h (2 Bft) O-SO 247 0 min 0 W/m 12,2 C 17,7 C 11,2 km/h (2 Bft)
27/09/2012 13:50 17,6 C 71 % 1013,6 hPa 0,0 mm 3,6 km/h (1 Bft) NO 315 0 min 0 W/m 12,3 C 17,6 C 6,1 km/h (2 Bft)
27/09/2012 14:00 17,8 C 70 % 1013,8 hPa 0,0 mm 7,2 km/h (2 Bft) S-SO 202 0 min 0 W/m 12,3 C 17,8 C 7,9 km/h (2 Bft)
27/09/2012 14:10 18,2 C 69 % 1013,9 hPa 0,0 mm 3,2 km/h (1 Bft) SO 225 0 min 0 W/m 12,4 C 18,2 C 3,6 km/h (1 Bft)
27/09/2012 14:20 18,4 C 66 % 1013,9 hPa 0,0 mm 4,7 km/h (1 Bft) S-SO 202 0 min 0 W/m 11,9 C 18,4 C 9,4 km/h (2 Bft)
27/09/2012 14:30 18,8 C 64 % 1014,0 hPa 0,0 mm 8,3 km/h (2 Bft) O-SO 247 0 min 0 W/m 11,8 C 18,8 C 15,1 km/h (3 Bft)
27/09/2012 14:40 18,9 C 64 % 1014,1 hPa 0,0 mm 10,1 km/h (2 Bft) O-SO 247 0 min 0 W/m 11,9 C 18,9 C 17,3 km/h (3 Bft)
27/09/2012 14:50 18,9 C 63 % 1014,2 hPa 0,0 mm 8,3 km/h (2 Bft) O 270 0 min 0 W/m 11,7 C 18,9 C 19,8 km/h (3 Bft)
27/09/2012 15:00 19,1 C 61 % 1014,1 hPa 0,0 mm 9,0 km/h (2 Bft) S-SO 202 0 min 0 W/m 11,4 C 19,1 C 13,7 km/h (3 Bft)
27/09/2012 15:10 19,3 C 61 % 1014,0 hPa 0,0 mm 10,8 km/h (2 Bft) O-SO 247 0 min 0 W/m 11,6 C 19,3 C 17,6 km/h (3 Bft)
27/09/2012 15:20 19,6 C 63 % 1014,3 hPa 0,0 mm 1,4 km/h (1 Bft) O-SO 247 0 min 0 W/m 12,4 C 19,6 C 2,9 km/h (1 Bft)
_ Min-Heure 03:50 15:10 00:00 - 15:20 - - - - 06:40 03:50 15:20
Minimum _ 11,7 C 61 % 1005,7 hPa - 1,4 km/h (1 Bft) - - - - 10,5 C 11,7 C 2,9 km/h (1 Bft)
_ Max-Heure 15:20 10:00 15:20 09:20 08:30 - - 15:20 15:20 12:30 15:20 11:50
Maximum _ 19,6 C 93 % 1014,3 hPa 0,2 mm 14,0 km/h
S-SO (3 Bft)
- - 0 min 0 W/m 13,5 C 19,6 C 20,2 km/h
SO (4 Bft)
Moyenne _ 13,7 C 87 % 1009,6 hPa #0,8 mm 7,4 km/h (2 Bft) SO - #0 min. 0 W/m 11,5 C 13,7 C 11,1 km/h (2 Bft)
Saint Bonnet de Bellac- Haute Vienne - France